{"data":{"norad_id":54079,"intl_designator":"2022-136AE","name":"STARLINK-5175","alt_names":[],"object_type":"PAYLOAD","status":"ACTIVE","operator":null,"country":"US","launch_date":"2022-10-20","launch_site_code":"AFETR","launch_vehicle":null,"mission":null,"orbit_class":"UNKNOWN","rcs_meters":null,"size_class":null,"mass_kg":null,"dimensions":null,"purposes":["comms"],"wikipedia_slug":null,"has_3d_model":false,"image_url":null,"decayed_at":null,"tle_current":{"epoch":"2026-09-20T07:48:15.291936Z","epoch_age_seconds":101262,"freshness":"FRESH","line1":"1 54079U 22136AE  26263.32517699  .00042314  00000+0  17179-2 0  9990","line2":"2 54079  53.1629 178.5800 0001382 108.1969 251.9179 15.24205139216386","mean_motion":15.24205139,"eccentricity":0.0001382,"inclination_deg":53.1629,"raan_deg":178.58,"arg_perigee_deg":108.1969,"mean_anomaly_deg":251.9179,"bstar":0.0017179,"rev_number":21638,"period_min":94.475472044711,"perigee_km":492.22367054035,"apogee_km":494.12290070329,"semimajor_km":6871.3102856218,"source":"CELESTRAK","updated_at":"2026-09-21T09:00:33.081002Z"}}}